Aérodrome :
LOGIN :

S'inscrire | Disclaimer

   EN    FR    IT 

 










Légende :    VFR   VFR Marginal   IFR   IFR Intensif   IFR Très Intensif
Visi : 
Plafond : 
>= 8 km
>= 3000ft
5 à 8 km
1000 à 3000 ft
1500m à 5 km
500 à 1000 ft
800 à 1500m
200 à 500 ft
< 800m
< 200 ft
Symboles :   Orages  Brouillard  Fortes neiges  Fortes précipitations  Vent > 20 kt
SIGMETs :   Divers  Orages  Givrage  Turbulence  Onde Orograph.  Cendres Volcan.







- Altitude de l'aérodrome : 49 ft
- Code IATA : GLZ


EHGR - Gilze-Rijen Airbase

DERNIER METAR :
  • 181955Z AUTO 05012KT 010V110 9999 NCD 03/M06 Q1026 BLU

METARs EXPIRÉS :
  • 181925Z AUTO 05011KT 010V120 9999 NCD 03/M06 Q1026 BLU
  • 181855Z AUTO 05012KT 020V100 9999 NCD 03/M06 Q1026 BLU
  • 181825Z AUTO 05011KT 030V100 9999 NCD 03/M06 Q1026 BLU
  • 181755Z AUTO 05011KT 010V110 9999 NCD 04/M07 Q1026 BLU
  • 181725Z AUTO 05011KT 360V100 9999 NCD 04/M07 Q1026 BLU

Prévision TAF périmée.
Pas de NOTAMs connus pour ce terrain.



MET'MAP, la Météo Aéronautique d'un coup d'oeil ! - Copyright ORBIFLY Décembre 2007 - Disclaimer

ORBIFLY MET'MAP TEAM :

Programmation & Développement : Alexandra Zaïnal
Conception & Développement : Baudouin d'Aumeries
Co-Programmation & Développement : Marc-Olivier Méhu
Soutien technique & logistique : Manuel Goepfert

Contact : metmap@orbifly.com




SOURCES & CREDITS :

   NOAA